weather.gov     
National Weather Service

Terminal Aerodrome Forecast
NWS Homepage
This page is being discontinued on March 12, 2014.
The same data is available at this site. Please update your bookmarks.
Thank you, and we apologize for the inconvenience.
Please send an email to SR-SRH.Webmaster@noaa.gov with any concerns.


Current Version
Previous Version:    01  02  03  04  05  06  07  08  09  10  11  12  13  14  15  16  17  18  19  20  21  22  23  24  25  26  27  28  29  
[Printable]
673
FTUS45 KREV 241700
TAFTRK
TAF
KTRK 241740Z 2418/2518 27008KT P6SM FEW050 SCT070 BKN180
     FM241900 23015G30KT P6SM SCT080 BKN150
     FM250200 22011G19KT P6SM VCSH SCT030 BKN050 WS020/25040KT
     FM250600 20008KT 5SM -RASN OVC015 WS020/25040KT=


U.S. Dept. of Commerce
NOAA National Weather Service
1325 East West Highway
Silver Spring, MD 20910
E-mail: w-nws.webmaster@noaa.gov
Page last modified: May 16, 2007
NATIONAL WEATHER SERVICE: for Safety, for Work, for Fun - FOR LIFE